Location: Roland
(31.1349°N, 85.4372°W)
Time: 12:22:15
(UTC+00:00)

Tiros 1 - All Passes

Search period start: 18 April 2021 00:00
Search period end: 28 April 2021 00:00
Orbit: 630 x 663 km, 48.4° (Epoch: 17 April)

Date Brightness Start Highest point End Pass type
(mag) Time Alt. Az. Time Alt. Az. Time Alt. Az.
18 Apr - 13:43:18 10° SSW 13:47:29 34° SE 13:51:40 10° ENE daylight
18 Apr - 15:25:20 10° W 15:29:37 36° NNW 15:33:54 10° NNE daylight
18 Apr - 17:11:16 10° NW 17:12:53 12° NNW 17:14:29 10° N daylight
18 Apr - 20:36:57 10° NNW 20:40:31 22° NNE 20:44:06 10° ENE daylight
18 Apr - 22:18:27 10° NW 22:23:04 73° SW 22:27:40 10° SE daylight
19 Apr - 12:30:20 10° SE 12:31:41 11° SE 12:33:01 10° ESE daylight
19 Apr - 14:08:39 10° SW 14:13:20 88° SE 14:17:59 10° NE daylight
19 Apr - 15:52:37 10° WNW 15:55:58 19° NNW 15:59:19 10° NNE daylight
19 Apr - 19:21:41 10° N 19:23:41 13° NNE 19:25:42 10° NE daylight
19 Apr - 21:02:25 10° NW 21:06:49 42° NE 21:11:13 10° ESE daylight
19 Apr - 22:44:57 10° WNW 22:48:50 27° SW 22:52:45 10° S daylight
20 Apr - 12:53:13 10° SSW 12:57:18 30° SE 13:01:23 10° ENE daylight
20 Apr - 14:35:01 10° WSW 14:39:23 39° NW 14:43:44 10° NE daylight
20 Apr - 16:20:45 10° NW 16:22:35 12° NNW 16:24:25 10° N daylight
20 Apr - 19:46:49 10° NNW 19:50:16 20° NNE 19:53:43 10° ENE daylight
20 Apr - 21:28:14 10° NW 21:32:51 80° SW 21:37:29 10° SE daylight
21 Apr - 13:18:25 10° SW 13:23:07 81° SE 13:27:46 10° NE daylight
21 Apr - 15:02:13 10° WNW 15:05:42 20° NNW 15:09:11 10° NNE daylight
21 Apr - 18:31:35 10° N 18:33:23 12° NNE 18:35:12 10° NE daylight
21 Apr - 20:12:15 10° NW 20:16:35 39° NE 20:20:55 10° ESE daylight
21 Apr - 21:54:38 10° WNW 21:58:39 30° SW 22:02:42 10° SSE daylight
22 Apr - 12:03:09 10° S 12:07:07 27° SE 12:11:04 10° ENE daylight
22 Apr - 13:44:41 10° WSW 13:49:09 42° NW 13:53:35 10° NE daylight
22 Apr - 15:30:14 10° NW 15:32:17 13° NNW 15:34:21 10° N daylight
22 Apr - 18:56:40 10° NNW 19:00:00 19° NNE 19:03:20 10° ENE daylight
22 Apr - 20:38:01 10° NW 20:42:39 88° SW 20:47:17 10° SE daylight
22 Apr - 22:23:07 10° WSW 22:24:16 11° SW 22:25:26 10° SW daylight
23 Apr - 12:28:13 10° SW 12:32:54 73° SE 12:37:34 10° NE daylight
23 Apr - 14:11:48 10° WNW 14:15:26 22° NNW 14:19:03 10° NNE daylight
23 Apr - 17:41:31 10° N 17:43:06 12° NNE 17:44:41 10° NE daylight
23 Apr - 19:22:06 10° NNW 19:26:22 36° NNE 19:30:37 10° E daylight
23 Apr - 21:04:19 10° WNW 21:08:28 33° SW 21:12:37 10° SSE daylight
24 Apr - 11:13:06 10° S 11:16:56 25° SE 11:20:45 10° ENE daylight
24 Apr - 12:54:23 10° WSW 12:58:54 46° NW 13:03:25 10° NE daylight
24 Apr - 14:39:43 10° NW 14:42:00 13° NNW 14:44:15 10° N daylight
24 Apr - 18:06:33 10° NNW 18:09:44 18° NNE 18:12:55 10° ENE daylight
24 Apr - 19:47:49 10° NW 19:52:26 84° NE 19:57:04 10° SE daylight
24 Apr - 21:32:14 10° WSW 21:34:06 12° SW 21:35:58 10° SSW daylight
25 Apr - 11:38:01 10° SW 11:42:42 66° SE 11:47:20 10° NE daylight
25 Apr - 13:21:25 10° W 13:25:10 23° NNW 13:28:55 10° NNE daylight
25 Apr - 16:51:26 10° N 16:52:48 11° NNE 16:54:09 10° NNE daylight
25 Apr - 18:31:55 10° NNW 18:36:07 33° NNE 18:40:17 10° E daylight
25 Apr - 20:14:03 10° WNW 20:18:18 37° SW 20:22:32 10° SSE daylight
26 Apr - 10:23:04 10° S 10:26:44 23° SE 10:30:24 10° E visible
26 Apr - 12:04:05 10° WSW 12:08:41 51° NW 12:13:14 10° NE daylight
26 Apr - 13:49:14 10° NW 13:51:42 14° NNW 13:54:09 10° NNE daylight
26 Apr - 17:16:24 10° NNW 17:19:28 17° NNE 17:22:31 10° ENE daylight
26 Apr - 18:57:36 10° NW 19:02:14 76° NE 19:06:50 10° SE daylight
26 Apr - 20:41:36 10° W 20:43:56 14° SW 20:46:16 10° SSW daylight
27 Apr - 10:47:50 10° SW 10:52:29 59° SE 10:57:06 10° ENE daylight
27 Apr - 12:31:01 10° W 12:34:54 25° NNW 12:38:47 10° NNE daylight
27 Apr - 16:01:23 10° N 16:02:30 11° NNE 16:03:37 10° NNE daylight
27 Apr - 17:41:46 10° NNW 17:45:52 31° NNE 17:49:58 10° E daylight
27 Apr - 19:23:46 10° WNW 19:28:06 41° SW 19:32:25 10° SSE daylight
